TimeIST,TemperatureF,Dew PointF,Humidity,Sea Level PressureIn,VisibilityMPH,Wind Direction,Wind SpeedMPH,Gust SpeedMPH,PrecipitationIn,Events,Conditions,WindDirDegrees,DateUTC
12:10 AM,77.0,75.2,94,29.83,3.1,East,3.5,-,N/A,,Haze,90,2012-10-25 18:40:00
12:40 AM,77.0,75.2,94,29.83,3.1,East,4.6,-,N/A,,Haze,100,2012-10-25 19:10:00
1:10 AM,77.0,75.2,94,29.80,3.1,Calm,Calm,-,N/A,,Haze,0,2012-10-25 19:40:00
1:40 AM,77.0,75.2,94,29.80,2.5,North,3.5,-,N/A,,Haze,350,2012-10-25 20:10:00
2:10 AM,77.0,75.2,94,29.80,2.5,NNE,2.3,-,N/A,,Haze,20,2012-10-25 20:40:00
2:30 AM,77,74,89,29.80,1,Calm,Calm,,,,Haze,,2012-10-25 21:00:00
2:40 AM,77.0,75.2,94,29.80,2.5,Calm,Calm,-,N/A,,Haze,0,2012-10-25 21:10:00
3:10 AM,77.0,75.2,94,29.80,2.5,Calm,Calm,-,N/A,,Haze,0,2012-10-25 21:40:00
5:10 AM,77.0,75.2,94,29.80,1.9,Calm,Calm,-,N/A,,Haze,0,2012-10-25 23:40:00
5:30 AM,77,74,89,29.81,1,NNE,3.5,,,,Haze,20,2012-10-26 00:00:00
6:10 AM,77.0,75.2,94,29.80,1.2,NNE,3.5,-,N/A,,Partly Cloudy,30,2012-10-26 00:40:00
7:10 AM,78.8,75.2,89,29.83,1.2,North,4.6,-,N/A,,Scattered Clouds,10,2012-10-26 01:40:00
7:40 AM,80.6,75.2,84,29.86,1.2,NNE,6.9,-,N/A,,Scattered Clouds,30,2012-10-26 02:10:00
8:10 AM,80.6,75.2,84,29.86,1.6,NNE,8.1,-,N/A,,Scattered Clouds,30,2012-10-26 02:40:00
8:30 AM,82,76,76,29.86,1,NE,9.2,,,,Mist,50,2012-10-26 03:00:00
9:10 AM,84.2,77.0,79,29.86,1.9,NE,11.5,-,N/A,,Haze,50,2012-10-26 03:40:00
9:40 AM,84.2,75.2,74,29.86,2.5,NNE,11.5,-,N/A,,Haze,30,2012-10-26 04:10:00
10:10 AM,86.0,75.2,70,29.86,2.5,NE,11.5,-,N/A,,Haze,50,2012-10-26 04:40:00
10:40 AM,87.8,75.2,66,29.86,2.5,NE,9.2,-,N/A,,Haze,40,2012-10-26 05:10:00
11:10 AM,87.8,75.2,66,29.86,2.5,NE,9.2,-,N/A,,Haze,50,2012-10-26 05:40:00
11:30 AM,88,72,51,29.83,2,ENE,11.5,,,,Haze,70,2012-10-26 06:00:00
11:40 AM,87.8,73.4,62,29.83,2.5,ENE,10.4,-,N/A,,Haze,70,2012-10-26 06:10:00
12:10 PM,87.8,73.4,62,29.83,2.5,NNE,10.4,-,N/A,,Haze,30,2012-10-26 06:40:00
12:40 PM,89.6,73.4,59,29.80,2.5,ENE,9.2,-,N/A,,Haze,60,2012-10-26 07:10:00
1:40 PM,89.6,71.6,55,29.77,3.1,NE,11.5,-,N/A,,Haze,50,2012-10-26 08:10:00
2:10 PM,89.6,71.6,55,29.77,3.1,ENE,5.8,-,N/A,,Haze,60,2012-10-26 08:40:00
2:30 PM,90,74,50,29.75,2,NNE,8.1,,,,Haze,20,2012-10-26 09:00:00
2:40 PM,89.6,75.2,62,29.74,3.1,NNE,6.9,-,N/A,,Haze,30,2012-10-26 09:10:00
3:10 PM,89.6,73.4,59,29.74,3.1,East,6.9,-,N/A,,Haze,90,2012-10-26 09:40:00
3:40 PM,89.6,75.2,62,29.74,3.1,NE,9.2,-,N/A,,Haze,50,2012-10-26 10:10:00
4:10 PM,86.0,75.2,70,29.74,3.1,NE,6.9,-,N/A,,Haze,40,2012-10-26 10:40:00
4:40 PM,86.0,75.2,70,29.74,3.1,ENE,6.9,-,N/A,,Haze,70,2012-10-26 11:10:00
5:10 PM,86.0,75.2,70,29.74,3.1,East,9.2,-,N/A,,Haze,100,2012-10-26 11:40:00
5:30 PM,84,72,59,29.74,2,East,9.2,,,,Haze,90,2012-10-26 12:00:00
5:40 PM,84.2,75.2,74,29.74,2.5,East,12.7,-,N/A,,Haze,90,2012-10-26 12:10:00
6:10 PM,84.2,75.2,74,29.77,2.5,East,6.9,-,N/A,,Haze,100,2012-10-26 12:40:00
6:40 PM,84.2,75.2,74,29.77,2.5,ESE,3.5,-,N/A,,Haze,110,2012-10-26 13:10:00
7:10 PM,84.2,75.2,74,29.77,2.5,East,4.6,-,N/A,,Haze,100,2012-10-26 13:40:00
7:40 PM,84.2,75.2,74,29.77,2.5,East,6.9,-,N/A,,Haze,90,2012-10-26 14:10:00
8:10 PM,82.4,75.2,79,29.80,2.5,East,5.8,-,N/A,,Haze,80,2012-10-26 14:40:00
8:40 PM,80.6,75.2,84,29.80,2.5,ENE,9.2,-,N/A,,Haze,70,2012-10-26 15:10:00
9:10 PM,80.6,75.2,84,29.83,2.5,ENE,6.9,-,N/A,,Haze,70,2012-10-26 15:40:00
9:40 PM,80.6,73.4,79,29.83,2.5,East,6.9,-,N/A,,Haze,80,2012-10-26 16:10:00
10:10 PM,80.6,73.4,79,29.83,2.5,East,5.8,-,N/A,,Haze,100,2012-10-26 16:40:00
10:40 PM,78.8,73.4,83,29.83,2.5,East,5.8,-,N/A,,Haze,90,2012-10-26 17:10:00
11:10 PM,78.8,73.4,83,29.83,2.5,ENE,4.6,-,N/A,,Haze,60,2012-10-26 17:40:00
11:30 PM,79,73,78,29.82,1,NE,6.9,,,,Haze,50,2012-10-26 18:00:00
11:40 PM,78.8,73.4,83,29.83,2.5,NE,4.6,-,N/A,,Haze,50,2012-10-26 18:10:00